Location: Austin
(30.3000°N, 97.7500°W)
Time: 06:18:03
(UTC-06:00)

Meteor 2-14 Rocket - Pass Details

Date: 05 February 2026
Orbit: 938 x 956 km, 82.5° (Epoch: 15 February)

Event Time Altitude Azimuth Distance (km) Brightness Sun altitude
Rises 05:46:54 0° 348° (NNW) 3,624 7.3 -20.2°
Reaches altitude 10° 05:49:26 10° 344° (NNW) 2,673 6.6 -19.7°
Maximum altitude 05:55:23 56° 268° (W) 1,109 4.4 -18.4°
Drops below altitude 10° 06:01:17 10° 191° (S) 2,648 6.8 -17.2°
Sets 06:03:48 0° 187° (S) 3,587 7.5 -16.6°
